QPF
0.09 0.08 0.13 0.12 0.10 0.10 0.09 0.08 0.10 0.11 0.12 0.09 0.08 0.08 0.09 0.09 0.06 0.05 0.05 0.04 0.03 0.03 0.04 0.04 0.07 0.11 0.08 0.07 0.06 0.06 0.05 0.05 0.05 0.06 0.05 0.06 0.06 0.06 0.05 0.05 0.03 0.01 0.03
0.14 0.10 0.15 0.15 0.16 0.16 0.13 0.12 0.12 0.11 0.10 0.09 0.08 0.08 0.08 0.08 0.06 0.05 0.06 0.06 0.04 0.04 0.04 0.05 0.08 0.10 0.06 0.04 0.03 0.03 0.03 0.04 0.06 0.07 0.06 0.06 0.07 0.05 0.04 0.04 0.03 0.02 0.03
0.15 0.12 0.15 0.13 0.14 0.14 0.11 0.09 0.10 0.09 0.10 0.09 0.08 0.07 0.06 0.07 0.06 0.05 0.06 0.04 0.03 0.04 0.05 0.06 0.05 0.04 0.03 0.02 0.02 0.02 0.03 0.05 0.07 0.07 0.07 0.05 0.06 0.06 0.04 0.03 0.03 0.02 0.02
0.11 0.11 0.15 0.14 0.12 0.10 0.08 0.07 0.06 0.06 0.09 0.10 0.08 0.06 0.04 0.06 0.10 0.11 0.09 0.05 0.05 0.04 0.04 0.03 0.02 0.02 0.03 0.03 0.04 0.04 0.04 0.05 0.08 0.08 0.07 0.06 0.05 0.07 0.05 0.03 0.02 0.02 0.02
0.11 0.11 0.11 0.10 0.07 0.07 0.07 0.05 0.04 0.05 0.09 0.12 0.10 0.06 0.05 0.07 0.10 0.10 0.11 0.07 0.05 0.04 0.04 0.04 0.04 0.04 0.04 0.05 0.05 0.05 0.04 0.04 0.06 0.07 0.06 0.05 0.04 0.04 0.04 0.04 0.03 0.03 0.03
0.07 0.07 0.08 0.06 0.06 0.11 0.08 0.05 0.04 0.05 0.07 0.09 0.09 0.07 0.06 0.08 0.07 0.07 0.07 0.05 0.03 0.03 0.04 0.06 0.06 0.06 0.05 0.04 0.03 0.03 0.04 0.05 0.05 0.06 0.05 0.04 0.04 0.05 0.04 0.03 0.04 0.04 0.03
0.05 0.05 0.06 0.06 0.09 0.12 0.07 0.05 0.05 0.05 0.05 0.05 0.05 0.05 0.05 0.06 0.06 0.05 0.04 0.03 0.02 0.02 0.03 0.03 0.02 0.02 0.02 0.03 0.02 0.03 0.05 0.06 0.06 0.05 0.05 0.04 0.03 0.05 0.07 0.04 0.04 0.04 0.03
0.04 0.04 0.04 0.04 0.05 0.04 0.03 0.04 0.03 0.03 0.04 0.03 0.03 0.03 0.04 0.05 0.04 0.02 0.02 0.01 0.01 0.02 0.01 0.01 0.01 0.01 0.02 0.02 0.02 0.03 0.04 0.04 0.07 0.07 0.04 0.04 0.03 0.04 0.06 0.04 0.04 0.04 0.03
0.02 0.03 0.03 0.02 0.02 0.02 0.02 0.02 0.02 0.02 0.03 0.03 0.03 0.03 0.02 0.02 0.03 0.02 0.02 0.01 0.01 0.01 0.01 0.01 0.01 0.02 0.02 0.02 0.03 0.04 0.04 0.05 0.08 0.06 0.04 0.05 0.06 0.03 0.04 0.04 0.03 0.03 0.04
0.02 0.02 0.02 0.02 0.01 0.02 0.02 0.02 0.02 0.02 0.02 0.04 0.04 0.04 0.04 0.04 0.04 0.03 0.02 0.02 0.02 0.02 0.02 0.01 0.01 0.02 0.03 0.03 0.03 0.03 0.04 0.04 0.04 0.04 0.04 0.04 0.04 0.03 0.03 0.04 0.03 0.03 0.03
0.03 0.03 0.02 0.02 0.02 0.02 0.02 0.02 0.02 0.01 0.02 0.03 0.04 0.06 0.05 0.04 0.04 0.03 0.03 0.04 0.05 0.04 0.03 0.03 0.02 0.02 0.02 0.02 0.03 0.04 0.05 0.05 0.05 0.04 0.04 0.06 0.07 0.07 0.05 0.05 0.04 0.04 0.03
0.03 0.03 0.03 0.03 0.02 0.02 0.02 0.02 0.02 0.02 0.02 0.02 0.03 0.04 0.04 0.05 0.05 0.04 0.06 0.08 0.08 0.07 0.06 0.06 0.05 0.03 0.02 0.02 0.03 0.04 0.06 0.07 0.11 0.10 0.05 0.04 0.07 0.06 0.06 0.05 0.05 0.04 0.04
0.04 0.04 0.04 0.04 0.03 0.02 0.02 0.02 0.03 0.03 0.03 0.04 0.03 0.03 0.03 0.03 0.05 0.04 0.05 0.05 0.05 0.05 0.03 0.03 0.03 0.02 0.02 0.05 0.07 0.05 0.09 0.10 0.15 0.11 0.07 0.09 0.09 0.07 0.05 0.05 0.05 0.04 0.04
0.04 0.08 0.10 0.06 0.04 0.02 0.02 0.02 0.02 0.03 0.04 0.03 0.02 0.03 0.04 0.04 0.05 0.04 0.03 0.03 0.03 0.02 0.02 0.01 0.02 0.02 0.03 0.04 0.05 0.07 0.09 0.12 0.10 0.08 0.09 0.08 0.07 0.05 0.04 0.05 0.04 0.03 0.03
0.03 0.04 0.06 0.07 0.06 0.04 0.03 0.03 0.02 0.02 0.03 0.03 0.03 0.03 0.04 0.04 0.04 0.03 0.03 0.03 0.04 0.02 0.02 0.02 0.02 0.02 0.03 0.04 0.05 0.05 0.07 0.08 0.08 0.08 0.11 0.07 0.05 0.04 0.04 0.05 0.04 0.03 0.03
0.01 0.01 0.02 0.03 0.05 0.07 0.06 0.05 0.03 0.02 0.02 0.03 0.02 0.03 0.06 0.07 0.04 0.03 0.03 0.03 0.03 0.02 0.02 0.03 0.05 0.03 0.03 0.04 0.05 0.06 0.08 0.07 0.06 0.05 0.06 0.07 0.06 0.03 0.04 0.05 0.06 0.05 0.04
0.00 0.00 0.01 0.02 0.04 0.07 0.05 0.03 0.01 0.01 0.01 0.02 0.02 0.02 0.03 0.04 0.04 0.04 0.04 0.02 0.01 0.01 0.02 0.01 0.02 0.02 0.02 0.02 0.04 0.05 0.06 0.05 0.05 0.04 0.04 0.04 0.03 0.03 0.03 0.04 0.05 0.04 0.05
0.00 0.00 0.00 0.01 0.03 0.03 0.02 0.01 0.01 0.02 0.02 0.02 0.02 0.03 0.03 0.05 0.05 0.05 0.03 0.02 0.01 0.01 0.01 0.01 0.02 0.03 0.04 0.02 0.04 0.06 0.04 0.03 0.04 0.04 0.04 0.03 0.03 0.04 0.03 0.04 0.05 0.05 0.05
0.00 0.00 0.00 0.01 0.01 0.01 0.01 0.02 0.02 0.03 0.04 0.03 0.03 0.03 0.04 0.07 0.07 0.06 0.04 0.02 0.02 0.01 0.02 0.02 0.02 0.03 0.04 0.03 0.03 0.04 0.04 0.05 0.04 0.04 0.04 0.03 0.03 0.03 0.04 0.03 0.04 0.04 0.05
0.00 0.00 0.00 0.01 0.01 0.01 0.01 0.01 0.02 0.03 0.05 0.03 0.02 0.02 0.03 0.05 0.06 0.04 0.03 0.04 0.03 0.03 0.03 0.03 0.03 0.04 0.04 0.03 0.03 0.03 0.04 0.05 0.04 0.04 0.04 0.03 0.02 0.02 0.03 0.03 0.03 0.04 0.04
0.00 0.00 0.00 0.00 0.01 0.02 0.01 0.01 0.01 0.03 0.04 0.03 0.03 0.03 0.03 0.03 0.03 0.03 0.04 0.04 0.04 0.04 0.04 0.03 0.04 0.05 0.05 0.04 0.04 0.04 0.05 0.04 0.03 0.02 0.04 0.04 0.03 0.03 0.04 0.04 0.04 0.03 0.04
0.00 0.00 0.00 0.00 0.01 0.01 0.01 0.02 0.02 0.02 0.02 0.02 0.04 0.05 0.05 0.03 0.02 0.02 0.03 0.03 0.04 0.06 0.04 0.04 0.04 0.03 0.03 0.03 0.05 0.05 0.05 0.06 0.03 0.02 0.03 0.05 0.05 0.04 0.04 0.04 0.04 0.04 0.04
0.01 0.01 0.01 0.01 0.01 0.01 0.01 0.02 0.03 0.03 0.02 0.03 0.05 0.05 0.08 0.06 0.04 0.04 0.04 0.04 0.06 0.06 0.05 0.04 0.04 0.03 0.03 0.03 0.04 0.05 0.05 0.05 0.04 0.03 0.04 0.06 0.05 0.04 0.03 0.03 0.04 0.04 0.04
0.01 0.01 0.02 0.01 0.01 0.01 0.01 0.02 0.03 0.02 0.02 0.03 0.04 0.04 0.04 0.05 0.05 0.05 0.04 0.04 0.05 0.06 0.07 0.07 0.05 0.05 0.04 0.03 0.03 0.05 0.05 0.05 0.05 0.05 0.04 0.05 0.04 0.05 0.05 0.04 0.03 0.04 0.04
0.01 0.03 0.03 0.02 0.01 0.01 0.02 0.03 0.03 0.02 0.03 0.03 0.04 0.04 0.04 0.04 0.05 0.06 0.06 0.06 0.07 0.07 0.06 0.06 0.06 0.04 0.03 0.03 0.04 0.05 0.06 0.07 0.07 0.06 0.05 0.05 0.03 0.03 0.04 0.05 0.04 0.03 0.04
0.02 0.03 0.04 0.04 0.06 0.06 0.04 0.04 0.04 0.05 0.05 0.04 0.04 0.05 0.04 0.04 0.04 0.04 0.05 0.05 0.05 0.06 0.06 0.06 0.05 0.04 0.05 0.04 0.03 0.03 0.04 0.05 0.04 0.05 0.06 0.05 0.04 0.03 0.02 0.03 0.05 0.05 0.06
MSLP
1009.92 1009.20 1008.76 1008.68 1008.94 1009.46 1010.10 1010.75 1011.31 1011.72 1011.98 1012.13 1012.25 1012.40 1012.60 1012.87 1013.17 1013.48 1013.73 1013.90 1014.00 1014.05 1014.07 1014.11 1014.19 1014.31 1014.46 1014.60 1014.69 1014.72 1014.68 1014.58 1014.44 1014.31 1014.20 1014.14 1014.13 1014.14 1014.17 1014.19 1014.19 1014.19 1014.18
1010.76 1010.07 1009.64 1009.55 1009.76 1010.19 1010.74 1011.30 1011.77 1012.11 1012.32 1012.46 1012.58 1012.74 1012.95 1013.22 1013.52 1013.81 1014.03 1014.17 1014.23 1014.24 1014.23 1014.24 1014.28 1014.37 1014.47 1014.57 1014.63 1014.63 1014.57 1014.46 1014.33 1014.20 1014.10 1014.04 1014.02 1014.03 1014.04 1014.05 1014.06 1014.06 1014.09
1011.47 1010.84 1010.44 1010.33 1010.49 1010.86 1011.32 1011.78 1012.17 1012.45 1012.63 1012.76 1012.89 1013.06 1013.28 1013.54 1013.82 1014.06 1014.25 1014.34 1014.37 1014.34 1014.30 1014.28 1014.30 1014.35 1014.42 1014.47 1014.50 1014.47 1014.39 1014.27 1014.14 1014.03 1013.94 1013.88 1013.85 1013.84 1013.83 1013.83 1013.84 1013.86 1013.91
1011.99 1011.43 1011.08 1010.98 1011.11 1011.42 1011.80 1012.18 1012.50 1012.73 1012.89 1013.02 1013.15 1013.32 1013.54 1013.78 1014.02 1014.23 1014.36 1014.41 1014.40 1014.35 1014.30 1014.26 1014.26 1014.28 1014.32 1014.34 1014.33 1014.27 1014.17 1014.05 1013.92 1013.81 1013.72 1013.66 1013.62 1013.59 1013.57 1013.55 1013.55 1013.58 1013.67
1012.30 1011.83 1011.55 1011.49 1011.62 1011.88 1012.21 1012.52 1012.78 1012.97 1013.11 1013.23 1013.36 1013.53 1013.73 1013.95 1014.14 1014.29 1014.37 1014.39 1014.35 1014.29 1014.23 1014.20 1014.19 1014.20 1014.22 1014.20 1014.16 1014.06 1013.94 1013.80 1013.66 1013.55 1013.46 1013.39 1013.34 1013.30 1013.26 1013.23 1013.23 1013.27 1013.38
1012.45 1012.10 1011.91 1011.90 1012.05 1012.29 1012.57 1012.82 1013.02 1013.18 1013.29 1013.40 1013.53 1013.68 1013.86 1014.03 1014.18 1014.28 1014.31 1014.29 1014.24 1014.17 1014.13 1014.10 1014.11 1014.11 1014.11 1014.07 1013.98 1013.85 1013.69 1013.53 1013.38 1013.26 1013.17 1013.10 1013.04 1012.99 1012.93 1012.89 1012.89 1012.94 1013.06
1012.50 1012.27 1012.20 1012.26 1012.44 1012.67 1012.91 1013.11 1013.26 1013.38 1013.46 1013.55 1013.66 1013.79 1013.93 1014.06 1014.16 1014.20 1014.19 1014.14 1014.08 1014.02 1013.99 1013.99 1014.00 1014.01 1013.98 1013.91 1013.79 1013.62 1013.42 1013.23 1013.07 1012.94 1012.85 1012.78 1012.72 1012.66 1012.60 1012.56 1012.55 1012.61 1012.74
1012.52 1012.43 1012.46 1012.61 1012.81 1013.04 1013.24 1013.39 1013.50 1013.56 1013.62 1013.68 1013.77 1013.87 1013.97 1014.06 1014.10 1014.09 1014.03 1013.96 1013.89 1013.84 1013.82 1013.83 1013.86 1013.86 1013.82 1013.71 1013.55 1013.34 1013.11 1012.89 1012.71 1012.58 1012.48 1012.42 1012.38 1012.32 1012.27 1012.23 1012.22 1012.28 1012.40
1012.56 1012.59 1012.72 1012.93 1013.16 1013.37 1013.54 1013.64 1013.69 1013.71 1013.74 1013.78 1013.84 1013.92 1013.98 1014.02 1014.02 1013.96 1013.87 1013.77 1013.68 1013.63 1013.61 1013.63 1013.65 1013.64 1013.58 1013.45 1013.25 1013.00 1012.74 1012.50 1012.30 1012.16 1012.08 1012.03 1012.00 1011.97 1011.94 1011.90 1011.90 1011.94 1012.05
1012.62 1012.74 1012.95 1013.20 1013.44 1013.62 1013.74 1013.80 1013.80 1013.79 1013.79 1013.81 1013.86 1013.92 1013.96 1013.97 1013.93 1013.84 1013.71 1013.58 1013.47 1013.40 1013.37 1013.38 1013.38 1013.36 1013.27 1013.11 1012.88 1012.60 1012.32 1012.06 1011.85 1011.71 1011.64 1011.61 1011.60 1011.59 1011.58 1011.56 1011.56 1011.59 1011.67
1012.66 1012.85 1013.10 1013.36 1013.59 1013.74 1013.82 1013.82 1013.79 1013.75 1013.74 1013.76 1013.81 1013.86 1013.90 1013.90 1013.84 1013.72 1013.57 1013.41 1013.27 1013.17 1013.12 1013.09 1013.07 1013.01 1012.90 1012.71 1012.46 1012.17 1011.86 1011.59 1011.38 1011.24 1011.17 1011.15 1011.16 1011.18 1011.19 1011.19 1011.20 1011.22 1011.27
1012.64 1012.87 1013.13 1013.38 1013.57 1013.68 1013.71 1013.68 1013.62 1013.57 1013.56 1013.60 1013.66 1013.74 1013.79 1013.79 1013.73 1013.61 1013.44 1013.26 1013.09 1012.96 1012.87 1012.81 1012.74 1012.66 1012.51 1012.31 1012.04 1011.74 1011.42 1011.14 1010.91 1010.77 1010.69 1010.67 1010.69 1010.73 1010.76 1010.79 1010.81 1010.82 1010.85
1012.52 1012.75 1013.00 1013.22 1013.36 1013.42 1013.42 1013.36 1013.30 1013.26 1013.27 1013.34 1013.43 1013.54 1013.62 1013.64 1013.60 1013.48 1013.32 1013.13 1012.94 1012.78 1012.65 1012.55 1012.45 1012.33 1012.16 1011.94 1011.66 1011.35 1011.03 1010.74 1010.49 1010.32 1010.22 1010.19 1010.20 1010.25 1010.30 1010.35 1010.38 1010.41 1010.43
1012.29 1012.50 1012.71 1012.88 1012.98 1013.01 1012.98 1012.93 1012.88 1012.87 1012.91 1013.00 1013.13 1013.27 1013.38 1013.43 1013.42 1013.33 1013.18 1013.01 1012.82 1012.64 1012.48 1012.34 1012.21 1012.06 1011.87 1011.64 1011.36 1011.05 1010.72 1010.41 1010.13 1009.92 1009.78 1009.70 1009.69 1009.73 1009.79 1009.86 1009.93 1009.98 1010.02
1011.94 1012.13 1012.30 1012.42 1012.49 1012.50 1012.48 1012.45 1012.43 1012.45 1012.52 1012.64 1012.79 1012.94 1013.07 1013.15 1013.17 1013.11 1013.00 1012.85 1012.67 1012.50 1012.33 1012.18 1012.02 1011.86 1011.66 1011.43 1011.15 1010.83 1010.50 1010.15 1009.84 1009.57 1009.36 1009.23 1009.17 1009.18 1009.24 1009.33 1009.44 1009.53 1009.61
1011.51 1011.66 1011.80 1011.90 1011.95 1011.98 1011.99 1012.00 1012.03 1012.08 1012.17 1012.30 1012.44 1012.58 1012.70 1012.78 1012.81 1012.79 1012.71 1012.60 1012.47 1012.32 1012.17 1012.02 1011.87 1011.71 1011.52 1011.29 1011.02 1010.70 1010.34 1009.97 1009.59 1009.25 1008.96 1008.75 1008.63 1008.60 1008.65 1008.76 1008.90 1009.05 1009.18
1011.06 1011.17 1011.28 1011.37 1011.45 1011.51 1011.58 1011.66 1011.73 1011.82 1011.91 1012.01 1012.10 1012.19 1012.26 1012.31 1012.33 1012.33 1012.29 1012.23 1012.15 1012.05 1011.94 1011.82 1011.70 1011.55 1011.38 1011.18 1010.92 1010.60 1010.23 1009.82 1009.39 1008.96 1008.58 1008.28 1008.08 1008.00 1008.02 1008.14 1008.32 1008.53 1008.72
1010.60 1010.69 1010.78 1010.88 1011.00 1011.14 1011.29 1011.43 1011.57 1011.67 1011.75 1011.79 1011.80 1011.79 1011.77 1011.75 1011.73 1011.72 1011.71 1011.70 1011.68 1011.65 1011.60 1011.54 1011.46 1011.36 1011.23 1011.05 1010.82 1010.51 1010.13 1009.69 1009.20 1008.69 1008.22 1007.83 1007.54 1007.39 1007.38 1007.50 1007.70 1007.95 1008.20
1010.18 1010.24 1010.33 1010.46 1010.63 1010.85 1011.09 1011.32 1011.51 1011.63 1011.67 1011.63 1011.53 1011.39 1011.25 1011.13 1011.05 1011.01 1011.01 1011.05 1011.09 1011.13 1011.16 1011.17 1011.16 1011.11 1011.03 1010.90 1010.70 1010.41 1010.03 1009.57 1009.03 1008.46 1007.90 1007.42 1007.05 1006.83 1006.77 1006.86 1007.06 1007.33 1007.62
1009.79 1009.83 1009.91 1010.08 1010.32 1010.62 1010.95 1011.27 1011.51 1011.65 1011.65 1011.53 1011.30 1011.03 1010.75 1010.51 1010.34 1010.26 1010.26 1010.32 1010.42 1010.54 1010.64 1010.73 1010.79 1010.82 1010.80 1010.72 1010.56 1010.31 1009.95 1009.47 1008.90 1008.28 1007.66 1007.09 1006.64 1006.34 1006.22 1006.26 1006.44 1006.70 1006.98
1009.44 1009.45 1009.54 1009.73 1010.02 1010.41 1010.83 1011.22 1011.52 1011.68 1011.65 1011.46 1011.13 1010.73 1010.32 1009.97 1009.71 1009.58 1009.56 1009.64 1009.79 1009.96 1010.14 1010.30 1010.43 1010.53 1010.58 1010.56 1010.46 1010.25 1009.91 1009.45 1008.87 1008.22 1007.54 1006.91 1006.38 1006.01 1005.81 1005.78 1005.90 1006.11 1006.35
1009.12 1009.12 1009.20 1009.40 1009.74 1010.18 1010.67 1011.14 1011.50 1011.68 1011.65 1011.42 1011.02 1010.54 1010.04 1009.59 1009.27 1009.09 1009.05 1009.14 1009.31 1009.52 1009.75 1009.98 1010.17 1010.33 1010.44 1010.48 1010.43 1010.27 1009.98 1009.54 1008.98 1008.31 1007.61 1006.93 1006.34 1005.88 1005.60 1005.48 1005.51 1005.63 1005.79
1008.84 1008.83 1008.90 1009.11 1009.47 1009.94 1010.49 1011.01 1011.42 1011.65 1011.65 1011.43 1011.02 1010.50 1009.96 1009.48 1009.11 1008.90 1008.85 1008.93 1009.11 1009.34 1009.60 1009.86 1010.09 1010.29 1010.45 1010.54 1010.55 1010.44 1010.19 1009.80 1009.26 1008.61 1007.90 1007.19 1006.54 1006.02 1005.65 1005.42 1005.34 1005.34 1005.38
1008.64 1008.64 1008.70 1008.90 1009.25 1009.74 1010.30 1010.86 1011.32 1011.61 1011.68 1011.51 1011.15 1010.67 1010.15 1009.67 1009.31 1009.09 1009.02 1009.09 1009.26 1009.49 1009.75 1010.01 1010.25 1010.48 1010.66 1010.79 1010.84 1010.78 1010.58 1010.24 1009.74 1009.12 1008.42 1007.70 1007.02 1006.43 1005.97 1005.64 1005.43 1005.30 1005.20
1008.55 1008.57 1008.64 1008.82 1009.15 1009.62 1010.18 1010.76 1011.26 1011.61 1011.76 1011.69 1011.42 1011.03 1010.59 1010.18 1009.85 1009.65 1009.58 1009.63 1009.78 1009.98 1010.20 1010.44 1010.67 1010.88 1011.07 1011.22 1011.29 1011.27 1011.13 1010.83 1010.39 1009.81 1009.14 1008.43 1007.74 1007.10 1006.57 1006.14 1005.80 1005.52 1005.27
1008.61 1008.68 1008.76 1008.93 1009.22 1009.65 1010.19 1010.76 1011.29 1011.70 1011.94 1011.98 1011.85 1011.58 1011.26 1010.94 1010.68 1010.51 1010.45 1010.49 1010.60 1010.75 1010.92 1011.11 1011.29 1011.47 1011.65 1011.79 1011.88 1011.89 1011.79 1011.55 1011.16 1010.64 1010.01 1009.32 1008.63 1007.97 1007.38 1006.86 1006.41 1006.00 1005.60
Thickness
5783 5786 5786 5785 5785 5785 5784 5783 5782 5781 5780 5779 5779 5778 5777 5776 5775 5774 5773 5771 5770 5769 5767 5766 5765 5764 5764 5763 5762 5761 5761 5760 5760 5759 5759 5758 5757 5756 5755 5754 5753 5752 5751
5787 5788 5787 5786 5785 5784 5783 5782 5781 5781 5780 5779 5778 5778 5777 5775 5774 5773 5772 5771 5770 5768 5767 5766 5765 5764 5763 5763 5762 5761 5760 5760 5759 5759 5758 5757 5756 5755 5754 5754 5752 5751 5750
5788 5787 5786 5786 5785 5783 5782 5781 5780 5780 5779 5778 5778 5777 5776 5775 5774 5773 5772 5771 5770 5768 5767 5766 5766 5765 5763 5763 5762 5761 5760 5759 5758 5758 5757 5756 5755 5754 5753 5753 5752 5751 5749
5789 5788 5786 5785 5784 5783 5782 5781 5780 5779 5778 5778 5777 5777 5776 5775 5773 5773 5772 5771 5770 5769 5767 5767 5766 5765 5764 5762 5761 5760 5760 5759 5758 5757 5756 5755 5755 5754 5753 5752 5751 5750 5749
5788 5788 5787 5785 5784 5783 5782 5780 5779 5778 5778 5777 5777 5776 5776 5774 5773 5772 5771 5770 5770 5769 5768 5767 5766 5765 5764 5762 5761 5760 5759 5758 5757 5756 5756 5755 5755 5754 5752 5751 5750 5749 5748
5788 5789 5789 5788 5784 5783 5782 5780 5779 5778 5777 5776 5776 5776 5775 5774 5773 5771 5771 5770 5769 5769 5767 5766 5765 5765 5764 5762 5761 5760 5759 5758 5757 5756 5755 5755 5754 5754 5753 5751 5750 5748 5747
5788 5789 5790 5790 5785 5783 5782 5781 5779 5778 5777 5776 5775 5775 5774 5773 5772 5771 5771 5770 5769 5768 5767 5766 5765 5764 5763 5762 5761 5761 5760 5759 5758 5757 5756 5755 5755 5754 5754 5752 5750 5748 5747
5790 5789 5789 5788 5786 5784 5782 5781 5779 5778 5777 5776 5775 5774 5773 5773 5772 5771 5771 5770 5769 5769 5767 5767 5765 5764 5764 5763 5762 5761 5760 5760 5759 5757 5756 5756 5755 5755 5754 5753 5751 5749 5747
5790 5789 5788 5787 5785 5784 5782 5781 5780 5779 5777 5776 5775 5774 5773 5772 5772 5771 5771 5771 5770 5769 5768 5767 5765 5764 5764 5763 5762 5762 5761 5761 5760 5758 5757 5756 5756 5755 5754 5753 5751 5749 5748
5789 5788 5787 5786 5784 5783 5782 5781 5780 5779 5778 5777 5776 5775 5774 5773 5772 5772 5771 5771 5770 5769 5768 5767 5766 5765 5764 5764 5763 5762 5762 5761 5760 5759 5758 5757 5756 5755 5755 5753 5752 5750 5748
5787 5787 5787 5785 5784 5783 5783 5782 5781 5780 5778 5777 5776 5775 5774 5773 5772 5772 5771 5771 5770 5769 5769 5768 5766 5765 5765 5764 5763 5763 5763 5762 5761 5760 5759 5758 5757 5756 5755 5754 5752 5750 5749
5785 5786 5787 5785 5785 5784 5783 5782 5781 5780 5779 5777 5776 5776 5775 5774 5773 5772 5772 5771 5770 5770 5769 5768 5767 5766 5765 5764 5763 5763 5763 5762 5761 5760 5760 5759 5757 5757 5756 5754 5752 5751 5749
5790 5789 5788 5787 5786 5785 5784 5783 5782 5781 5779 5778 5777 5776 5775 5774 5773 5772 5772 5771 5771 5770 5769 5768 5767 5767 5766 5765 5764 5763 5763 5762 5761 5761 5761 5759 5758 5757 5756 5754 5753 5751 5750
5792 5792 5791 5790 5788 5787 5785 5785 5783 5782 5780 5779 5779 5777 5776 5774 5773 5772 5772 5771 5771 5770 5769 5768 5768 5767 5767 5766 5765 5764 5763 5763 5762 5761 5760 5760 5759 5758 5757 5755 5753 5752 5750
5795 5794 5794 5792 5789 5788 5787 5785 5785 5783 5782 5781 5780 5779 5778 5776 5774 5773 5772 5771 5771 5770 5770 5769 5768 5768 5767 5766 5766 5765 5764 5763 5762 5761 5761 5760 5759 5758 5757 5755 5753 5752 5751
5797 5796 5796 5794 5792 5790 5788 5787 5786 5785 5783 5782 5781 5780 5779 5777 5775 5774 5773 5772 5772 5771 5771 5770 5769 5768 5767 5767 5766 5765 5764 5763 5763 5761 5760 5759 5758 5758 5757 5755 5753 5752 5751
5801 5799 5797 5796 5794 5791 5790 5789 5788 5786 5785 5784 5782 5781 5780 5778 5776 5775 5774 5773 5773 5772 5772 5771 5770 5769 5767 5767 5766 5765 5765 5764 5762 5761 5760 5759 5758 5757 5756 5755 5753 5752 5752
5803 5800 5799 5799 5795 5793 5791 5790 5789 5788 5786 5784 5783 5782 5780 5779 5778 5776 5775 5774 5773 5773 5772 5770 5769 5767 5766 5765 5764 5765 5764 5764 5762 5761 5760 5759 5758 5757 5756 5755 5754 5753 5752
5806 5803 5800 5799 5796 5794 5793 5791 5790 5789 5787 5785 5784 5783 5781 5780 5778 5777 5776 5775 5774 5773 5771 5771 5768 5767 5764 5764 5764 5763 5763 5762 5761 5761 5760 5759 5758 5757 5756 5755 5754 5753 5752
5809 5806 5802 5800 5797 5795 5793 5791 5789 5787 5786 5785 5784 5783 5782 5780 5779 5777 5776 5774 5774 5772 5770 5769 5767 5766 5765 5764 5763 5761 5760 5761 5760 5760 5759 5759 5758 5757 5756 5754 5753 5752 5750
5809 5805 5803 5800 5797 5795 5791 5788 5785 5783 5783 5783 5783 5783 5781 5780 5778 5777 5776 5774 5773 5770 5769 5768 5766 5764 5762 5763 5758 5755 5756 5758 5758 5759 5759 5758 5757 5756 5755 5754 5752 5751 5749
5809 5806 5803 5801 5798 5796 5793 5790 5788 5785 5783 5783 5783 5781 5780 5779 5777 5776 5775 5773 5771 5769 5768 5766 5764 5761 5760 5760 5754 5748 5744 5747 5752 5757 5757 5756 5755 5755 5754 5752 5750 5749 5748
5810 5808 5806 5802 5800 5797 5795 5791 5788 5784 5782 5780 5779 5778 5779 5777 5776 5775 5774 5773 5771 5769 5766 5765 5763 5759 5755 5756 5755 5748 5740 5736 5741 5748 5752 5753 5752 5752 5752 5751 5749 5748 5746
5813 5811 5808 5804 5800 5798 5795 5791 5785 5780 5776 5777 5777 5777 5776 5776 5775 5774 5773 5772 5770 5769 5766 5764 5763 5759 5756 5752 5752 5752 5749 5745 5738 5737 5744 5748 5749 5749 5749 5749 5748 5746 5744
5815 5811 5807 5803 5800 5797 5794 5791 5786 5781 5778 5777 5776 5775 5774 5773 5773 5772 5771 5770 5768 5767 5765 5763 5761 5759 5756 5753 5750 5748 5746 5744 5742 5735 5733 5737 5742 5745 5746 5745 5745 5744 5742
5814 5810 5807 5801 5798 5796 5793 5790 5786 5781 5777 5774 5772 5771 5770 5770 5770 5769 5768 5767 5766 5764 5763 5761 5760 5757 5755 5753 5750 5748 5744 5740 5737 5735 5731 5731 5733 5738 5742 5742 5741 5740 5740